CW4829 Weather Reports


time (UTC)temp
C
wind
direction
speed
KPH
gust
KPH
rain 1hr
cm
rain 24hr
cm
rain mn
cm
humidity
%
barometer
mb
20260507065047 4 330 0.0 0.0 0.00 0.53 0.00 81 1010.2
20260507064543 4 330 0.0 0.0 0.00 0.53 0.00 81 1010.2
20260507063525 4 330 0.0 0.0 0.00 0.53 0.00 81 1010.2
20260507063051 4 330 0.0 0.0 0.00 0.53 0.00 81 1010.2
20260507062559 4 330 0.0 0.0 0.00 0.53 0.00 81 1010.3
20260507061517 4 330 0.0 0.0 0.00 0.53 0.00 81 1010.3
20260507061033 4 330 0.0 0.0 0.00 0.53 0.00 81 1010.4
20260507060607 4 330 0.0 0.0 0.00 0.53 0.00 80 1010.4
20260507060020 4 330 0.0 0.0 0.00 0.53 0.00 80 1010.4
20260507055518 4 330 0.0 0.0 0.00 0.61 0.00 81 1010.6
20260507055045 5 330 0.0 0.0 0.00 0.61 0.00 81 1010.6
20260507054532 5 330 0.0 0.0 0.00 0.61 0.00 81 1010.6
20260507054022 5 330 0.0 0.0 0.00 0.61 0.00 81 1010.7
20260507053526 5 330 0.0 0.0 0.00 0.61 0.00 81 1010.7
20260507053018 5 330 0.0 0.0 0.00 0.61 0.00 80 1010.7
20260507052541 5 330 0.0 0.0 0.00 0.61 0.00 80 1010.7
20260507052033 5 330 0.0 0.0 0.00 0.61 0.00 80 1010.7
20260507051522 5 330 0.0 0.0 0.00 0.61 0.00 79 1010.7
20260507051033 5 330 0.0 0.0 0.00 0.61 0.00 79 1010.7
20260507050552 5 330 0.0 0.0 0.00 0.61 0.00 78 1010.7
20260507050028 5 330 0.0 0.0 0.00 0.61 0.00 78 1010.7
20260507045518 5 330 0.0 0.0 0.00 0.61 0.00 77 1010.7
20260507045030 5 330 0.0 0.0 0.00 0.61 0.00 77 1010.7
20260507044524 5 330 0.0 0.0 0.00 0.61 0.00 77 1010.7
20260507044020 5 330 0.0 0.0 0.00 0.61 0.00 77 1010.7
20260507043538 5 330 0.0 0.0 0.00 0.61 0.00 77 1010.7
20260507043021 5 330 0.0 0.0 0.00 0.61 0.00 76 1010.7
20260507042534 5 330 0.0 0.0 0.00 0.61 0.00 75 1010.7
20260507042028 5 330 0.0 0.0 0.00 0.61 0.00 75 1010.7
20260507041518 5 330 0.0 0.0 0.00 0.61 0.00 75 1010.7
20260507041043 5 330 0.0 0.0 0.00 0.61 0.00 75 1010.8
20260507040530 6 330 0.0 0.0 0.00 0.61 0.00 75 1010.8
20260507040056 6 330 0.0 0.0 0.00 0.61 0.00 75 1010.8
20260507035528 6 330 0.0 0.0 0.00 0.74 0.61 74 1010.8
20260507035039 6 330 0.0 0.0 0.00 0.74 0.61 74 1010.8
20260507034547 6 330 0.0 0.0 0.00 0.74 0.61 73 1010.8
20260507034113 6 330 0.0 0.0 0.00 0.74 0.61 72 1011.0
20260507033522 6 330 0.0 0.0 0.00 0.74 0.61 72 1011.0
20260507033022 6 330 0.0 0.0 0.00 0.74 0.61 72 1011.0
20260507032535 6 330 0.0 0.0 0.00 0.74 0.61 71 1011.1
20260507032053 6 330 0.0 0.0 0.00 0.74 0.61 70 1011.1
20260507031034 7 330 0.0 0.0 0.00 0.74 0.61 70 1011.2
20260507030527 7 330 0.0 0.0 0.00 0.74 0.61 70 1011.2
20260507030048 7 330 0.0 0.0 0.00 0.74 0.61 69 1011.2
20260507025558 7 330 0.0 0.0 0.00 0.97 0.61 67 1011.2
20260507025101 7 330 0.0 0.0 0.00 0.97 0.61 66 1011.2
20260507024032 7 330 0.0 0.0 0.00 0.97 0.61 65 1011.1
20260507023025 8 330 0.0 0.0 0.00 0.97 0.61 64 1011.1
20260507022528 8 330 0.0 0.0 0.00 0.97 0.61 64 1010.8
20260507022036 8 330 0.0 0.0 0.00 0.97 0.61 64 1010.8
20260507021548 8 330 0.0 0.0 0.00 0.97 0.61 64 1010.8
20260507021045 8 330 0.0 0.0 0.00 0.97 0.61 64 1010.7
20260507020018 9 330 0.0 0.0 0.00 0.97 0.61 61 1010.7
20260507015535 10 330 0.0 0.0 0.00 1.32 0.61 61 1010.7
20260507015039 10 330 0.0 0.0 0.00 1.32 0.61 61 1010.7
20260507014545 10 330 0.0 0.0 0.00 1.32 0.61 60 1010.7
20260507014045 10 330 0.0 0.0 0.00 1.32 0.61 60 1010.7
20260507013036 10 330 0.0 0.0 0.00 1.32 0.61 59 1010.7
20260507012546 10 330 0.0 0.0 0.00 1.32 0.61 59 1010.6
20260507011519 11 330 0.0 3.2 0.00 1.32 0.61 57 1010.6
20260507010132 11 330 0.0 3.2 0.00 1.32 0.61 57 1010.3
20260507005612 11 330 0.0 1.6 0.00 1.50 0.61 56 1010.2
20260507005120 11 330 0.0 3.2 0.00 1.50 0.61 56 1010.2
20260507004613 11 330 0.0 4.8 0.00 1.50 0.61 56 1010.2
20260507004023 11 330 0.0 4.8 0.00 1.50 0.61 56 1010.0
20260507003531 11 355 0.0 1.6 0.00 1.50 0.61 55 1010.0
20260507003037 11 355 0.0 4.8 0.00 1.50 0.61 55 1010.0
20260507002531 11 355 0.0 6.4 0.00 1.50 0.61 55 1009.9
20260507002051 11 355 1.6 6.4 0.00 1.50 0.61 54 1009.9
20260507001016 11 336 1.6 8.0 0.00 1.50 0.61 54 1009.9
20260507000540 11 329 6.4 9.7 0.00 1.50 0.61 54 1009.9
20260507000058 11 346 3.2 9.7 0.00 1.50 0.61 54 1009.9
20260506235545 11 350 4.8 9.7 0.00 1.88 0.61 54 1009.6
20260506234527 11 302 3.2 8.0 0.00 1.88 0.61 54 1009.6
20260506233533 11 331 6.4 11.3 0.00 1.88 0.61 54 1009.6
20260506233057 12 14 4.8 9.7 0.00 1.88 0.61 55 1009.6
20260506232019 12 336 3.2 11.3 0.00 1.88 0.61 55 1010.1
20260506231546 12 276 4.8 11.3 0.00 1.88 0.61 53 1010.1
20260506231101 12 325 6.4 12.9 0.00 1.88 0.61 54 1010.1
20260506230032 12 18 4.8 11.3 0.00 1.88 0.61 54 1010.1
20260506225542 12 331 3.2 12.9 0.00 2.03 0.61 53 1010.1
20260506224541 12 355 4.8 11.3 0.00 2.03 0.61 53 1010.1
20260506223530 12 304 6.4 11.3 0.00 2.03 0.61 53 1010.1
20260506222534 12 337 3.2 9.7 0.00 2.03 0.61 55 1010.1
20260506222057 12 343 6.4 9.7 0.00 2.03 0.61 55 1010.1
20260506221555 12 336 4.8 12.9 0.00 2.03 0.61 55 1010.1
20260506220538 12 336 8.0 12.9 0.00 2.03 0.61 54 1009.8
20260506220052 12 332 8.0 12.9 0.00 2.03 0.61 54 1009.8
20260506215604 12 318 8.0 12.9 0.00 2.67 0.61 54 1009.6
20260506215103 12 315 4.8 12.9 0.00 2.67 0.61 55 1009.6
20260506214040 12 338 3.2 12.9 0.00 2.67 0.61 54 1009.4
20260506213545 12 360 9.7 16.1 0.00 2.67 0.61 54 1009.4
20260506212524 12 340 6.4 17.7 0.00 2.67 0.61 55 1009.3
20260506212022 12 295 8.0 12.9 0.00 2.67 0.61 54 1009.3
20260506211021 12 311 6.4 14.5 0.00 2.67 0.61 55 1009.5
20260506210537 12 313 6.4 14.5 0.00 2.67 0.61 55 1009.5
20260506210039 12 312 4.8 14.5 0.00 2.67 0.61 56 1009.5
20260506205021 12 343 4.8 12.9 0.00 2.69 0.61 55 1009.2
20260506204529 12 355 3.2 12.9 0.00 2.69 0.61 56 1009.2
20260506204100 12 302 4.8 14.5 0.00 2.69 0.61 55 1009.0
20260506203629 12 333 8.0 14.5 0.00 2.69 0.61 56 1009.0
20260506203019 12 5 4.8 12.9 0.00 2.69 0.61 56 1009.0
20260506202542 12 329 6.4 16.1 0.00 2.69 0.61 56 1009.1
20260506202057 12 281 8.0 16.1 0.00 2.69 0.61 55 1009.1
20260506201605 12 5 6.4 14.5 0.00 2.69 0.61 56 1009.1
20260506201110 12 308 9.7 14.5 0.00 2.69 0.61 55 1009.0
20260506200030 12 305 4.8 17.7 0.00 2.69 0.61 58 1009.0
20260506195026 12 9 8.0 14.5 0.00 2.69 0.61 59 1009.2
20260506194035 12 45 4.8 14.5 0.00 2.69 0.61 59 1009.3
20260506193604 12 303 8.0 14.5 0.00 2.69 0.61 59 1009.3
20260506192545 12 9 6.4 14.5 0.00 2.69 0.61 58 1009.1
20260506192052 12 340 3.2 16.1 0.00 2.69 0.61 58 1009.1
20260506191612 13 355 8.0 16.1 0.00 2.69 0.61 58 1009.1
20260506190536 13 301 6.4 14.5 0.00 2.69 0.61 59 1008.9
20260506190101 13 360 8.0 17.7 0.00 2.69 0.61 58 1008.9
20260506185038 13 335 8.0 16.1 0.00 2.69 0.61 59 1009.0
20260506184557 13 351 4.8 14.5 0.00 2.69 0.61 59 1009.0
20260506184107 13 322 9.7 17.7 0.00 2.69 0.61 59 1009.0
20260506183609 13 284 9.7 17.7 0.00 2.69 0.61 60 1009.0
20260506183117 13 199 6.4 16.1 0.00 2.69 0.61 60 1009.0
20260506182607 13 329 8.0 16.1 0.00 2.69 0.61 60 1009.1
20260506182054 13 321 8.0 16.1 0.00 2.69 0.61 60 1009.1
20260506181025 13 336 8.0 16.1 0.00 2.69 0.61 61 1009.1
20260506180532 13 333 4.8 25.7 0.00 2.69 0.61 61 1009.1
20260506175540 13 325 12.9 22.5 0.00 2.69 0.61 61 1009.0
20260506174522 13 284 8.0 16.1 0.00 2.69 0.61 64 1009.0
20260506174049 13 360 4.8 16.1 0.00 2.69 0.61 64 1009.1
20260506173032 13 241 4.8 16.1 0.00 2.69 0.61 65 1009.1
20260506172550 13 44 8.0 12.9 0.00 2.69 0.61 66 1009.0
20260506172044 13 360 3.2 14.5 0.00 2.69 0.61 68 1009.0
20260506171550 12 355 8.0 14.5 0.00 2.69 0.61 67 1009.0
20260506171105 12 250 4.8 16.1 0.00 2.69 0.61 68 1009.1
20260506170624 12 305 8.0 14.5 0.00 2.69 0.61 67 1009.1
20260506170021 12 299 8.0 11.3 0.00 2.69 0.61 69 1009.1
20260506165536 12 220 6.4 9.7 0.00 2.69 0.61 69 1009.3
20260506164526 12 348 8.0 16.1 0.00 2.69 0.61 72 1009.3
20260506164053 12 313 3.2 12.9 0.00 2.69 0.61 72 1009.2
20260506163027 11 249 6.4 16.1 0.00 2.69 0.61 72 1009.2
20260506162546 11 292 6.4 16.1 0.00 2.69 0.61 73 1009.2
20260506162100 11 301 9.7 16.1 0.00 2.69 0.61 74 1009.2
20260506161024 11 37 4.8 12.9 0.00 2.69 0.61 76 1008.9
20260506160546 11 336 6.4 16.1 0.00 2.69 0.61 77 1008.9
20260506160122 11 320 8.0 16.1 0.00 2.69 0.61 77 1008.9
20260506155611 11 67 6.4 12.9 0.00 2.69 0.61 77 1008.8
20260506154532 11 293 4.8 12.9 0.00 2.69 0.61 78 1008.8
20260506154034 11 360 8.0 12.9 0.00 2.69 0.61 78 1008.5
20260506153607 11 74 3.2 14.5 0.00 2.69 0.61 80 1008.5
20260506153120 10 12 8.0 14.5 0.00 2.69 0.61 80 1008.5
20260506152033 10 343 6.4 14.5 0.00 2.69 0.61 80 1008.5
20260506151550 10 283 6.4 17.7 0.00 2.69 0.61 81 1008.5
20260506150519 10 334 8.0 12.9 0.00 2.69 0.61 82 1008.4
20260506150033 10 285 6.4 11.3 0.00 2.69 0.61 82 1008.4
20260506145543 9 350 3.2 12.9 0.00 2.69 0.61 82 1008.5
20260506144544 9 313 8.0 11.3 0.00 2.69 0.61 83 1008.5
20260506144049 9 341 4.8 11.3 0.00 2.69 0.61 84 1008.1
20260506143600 9 348 4.8 12.9 0.00 2.69 0.61 84 1008.1
20260506143114 9 311 4.8 12.9 0.00 2.69 0.61 85 1008.1
20260506142602 8 355 6.4 16.1 0.00 2.69 0.61 84 1007.9
20260506142053 8 355 9.7 16.1 0.00 2.69 0.61 86 1007.9
20260506141552 8 342 4.8 11.3 0.00 2.69 0.61 87 1007.9
20260506141104 8 314 6.4 11.3 0.00 2.69 0.61 87 1007.5
20260506140608 8 338 8.0 12.9 0.00 2.69 0.61 88 1007.5
20260506135532 8 317 6.4 11.3 0.00 2.69 0.61 90 1007.5
20260506135103 8 74 3.2 9.7 0.00 2.69 0.61 90 1007.5
20260506134029 8 322 8.0 12.9 0.00 2.69 0.61 91 1007.4
20260506133605 8 355 8.0 14.5 0.00 2.69 0.61 92 1007.4
20260506133050 7 14 6.4 11.3 0.00 2.69 0.61 92 1007.4
20260506132554 7 341 6.4 19.3 0.00 2.69 0.61 93 1007.5
20260506132053 7 332 6.4 19.3 0.00 2.69 0.61 93 1007.5
20260506131028 7 307 3.2 12.9 0.00 2.69 0.61 93 1007.5
20260506130033 7 305 4.8 9.7 0.00 2.69 0.61 94 1007.5
20260506125559 7 331 4.8 9.7 0.00 2.69 0.61 94 1007.4
20260506125117 7 348 3.2 9.7 0.00 2.69 0.61 94 1007.4
20260506124518 7 337 6.4 11.3 0.00 2.69 0.61 94 1007.4
20260506124026 7 281 4.8 11.3 0.00 2.69 0.61 94 1006.9
20260506123053 7 12 8.0 14.5 0.00 2.69 0.61 95 1006.9
20260506122025 7 9 4.8 6.4 0.00 2.69 0.61 95 1006.4
20260506121554 7 18 3.2 8.0 0.00 2.69 0.61 95 1006.4
20260506120530 6 15 1.6 4.8 0.00 2.69 0.61 95 1006.5
20260506120023 6 15 1.6 6.4 0.00 2.69 0.61 95 1006.5
20260506115541 6 360 3.2 12.9 0.00 2.69 0.61 95 1006.4
20260506114533 7 320 6.4 11.3 0.00 2.69 0.61 95 1006.4
20260506114043 7 59 1.6 12.9 0.00 2.69 0.61 96 1005.8
20260506113551 7 355 3.2 12.9 0.00 2.69 0.61 96 1005.8
20260506112534 7 318 6.4 12.9 0.00 2.69 0.61 96 1005.3
20260506112102 7 351 8.0 12.9 0.00 2.69 0.61 96 1005.3
20260506111605 7 9 6.4 12.9 0.00 2.69 0.61 96 1005.3
20260506111050 7 355 6.4 12.9 0.00 2.69 0.61 96 1005.3
20260506110028 7 17 3.2 8.0 0.00 2.69 0.61 96 1005.3
20260506105546 7 360 4.8 9.7 0.00 2.69 0.61 96 1005.3
20260506104620 7 346 3.2 12.9 0.00 2.69 0.61 96 1005.3
20260506103544 7 17 4.8 8.0 0.00 2.69 0.61 96 1005.3
20260506103049 7 348 0.0 9.7 0.00 2.69 0.61 96 1005.3
20260506102030 7 46 6.4 12.9 0.00 2.69 0.61 96 1005.3
20260506101021 7 327 4.8 8.0 0.00 2.69 0.61 96 1004.3
20260506100537 7 340 3.2 8.0 0.00 2.69 0.61 96 1004.3
20260506095527 7 13 3.2 6.4 0.03 2.69 0.61 96 1004.2
20260506095046 7 360 3.2 4.8 0.03 2.69 0.61 96 1004.2
20260506094558 7 346 1.6 6.4 0.05 2.69 0.61 96 1004.2
20260506094045 7 346 1.6 6.4 0.08 2.69 0.61 96 1003.7
20260506093123 7 69 1.6 6.4 0.08 2.69 0.61 96 1003.7
20260506092620 7 69 1.6 9.7 0.10 2.69 0.61 96 1004.3
20260506092104 7 36 4.8 9.7 0.13 2.69 0.61 96 1004.3
20260506091522 7 338 3.2 12.9 0.15 2.69 0.61 96 1004.3
20260506091047 7 5 4.8 12.9 0.18 2.69 0.61 96 1004.2
20260506090606 7 20 1.6 11.3 0.18 2.69 0.61 96 1004.2
20260506085529 7 347 1.6 9.7 0.18 2.67 0.58 96 1004.6
20260506085053 7 336 4.8 11.3 0.18 2.67 0.58 96 1004.6
20260506084045 7 336 4.8 9.7 0.13 2.62 0.53 96 1004.5
20260506083024 7 5 9.7 17.7 0.13 2.62 0.53 96 1004.5
20260506082543 8 360 6.4 16.1 0.10 2.59 0.51 96 1004.4
20260506082101 8 347 3.2 9.7 0.10 2.57 0.48 96 1004.4
20260506081050 8 333 4.8 16.1 0.05 2.51 0.43 96 1004.2
20260506080533 8 307 6.4 16.1 0.08 2.51 0.43 96 1004.2
20260506073050 7 349 6.4 16.1 0.20 2.49 0.41 96 1003.7
20260506072044 7 283 6.4 16.1 0.20 2.46 0.38 95 1003.9
20260506071543 7 344 4.8 16.1 0.20 2.46 0.38 95 1003.9
20260506071047 7 360 6.4 14.5 0.25 2.46 0.38 95 1003.8
20260506070529 7 229 6.4 14.5 0.25 2.44 0.36 95 1003.8
20260506070113 7 329 4.8 12.9 0.25 2.41 0.33 95 1003.8